sat.trackr.live / text

‹ back to catalog

STARLINK-6241

NORAD 56409 · 2023-061AM

PAYLOAD ACTIVE UNKNOWN

§ Identity

Operator
Country
US
Launch date
2023-05-04
Launch site
AFETR
Launch vehicle
Mass (kg)
RCS (m²)

Purposes: comms

External: N2YO · Heavens-Above · Gunter

§ Orbital elements

Epoch: 2026-05-24T21:02:49.083936Z

Period
94.29 min
Inclination
43.0021°
Eccentricity
0.0001299
Mean motion
15.27169311 rev/d
Perigee alt
483.4 km
Apogee alt
485.2 km
Semi-major
6,862.4 km
B*
2.9533e-3
RAAN
117.0079°
Arg perigee
181.5457°
Mean anomaly
178.5390°
Rev number
16,852

§ Raw data

STARLINK-62411 56409U 23061AM  26144.87695699  .00080882  00000+0  29533-2 0  99912 56409  43.0021 117.0079 0001299 181.5457 178.5390 15.27169311168524

JSON: /api/v1/satellites/56409 · /tle

For live sub-satellite position, see the globe view (requires WebGL).

§ Visibility from observer

Set your observer location to see the next 7 days of passes ≥ 10°. The values pass through the URL so the page stays shareable.

No JS? Fill the form by hand. The geolocation button needs JavaScript.